TimeEST,TemperatureF,Dew PointF,Humidity,Sea Level PressureIn,VisibilityMPH,Wind Direction,Wind SpeedMPH,Gust SpeedMPH,PrecipitationIn,Events,Conditions,WindDirDegrees,DateUTC
12:51 AM,42.6,25.2,50,30.42,10.0,South,4.6,-,N/A,,Overcast,170,2013-11-05 05:51:00
1:51 AM,42.6,25.9,52,30.42,10.0,South,4.6,-,N/A,,Overcast,170,2013-11-05 06:51:00
2:51 AM,42.6,25.9,52,30.42,10.0,South,3.5,-,N/A,,Overcast,180,2013-11-05 07:51:00
3:51 AM,41.4,26.2,55,30.43,10.0,South,3.5,-,N/A,,Overcast,190,2013-11-05 08:51:00
4:51 AM,43.7,27.7,53,30.43,10.0,South,8.1,-,N/A,,Overcast,190,2013-11-05 09:51:00
5:51 AM,43.7,27.7,53,30.43,10.0,South,8.1,-,N/A,,Overcast,190,2013-11-05 10:51:00
6:51 AM,44.1,28.9,55,30.45,10.0,South,5.8,-,N/A,,Overcast,190,2013-11-05 11:51:00
7:51 AM,46.0,32.0,58,30.44,10.0,South,6.9,-,N/A,,Overcast,190,2013-11-05 12:51:00
8:51 AM,46.0,34.0,63,30.44,10.0,South,6.9,-,N/A,,Overcast,190,2013-11-05 13:51:00
9:51 AM,51.1,35.1,54,30.43,10.0,SSW,9.2,-,N/A,,Overcast,200,2013-11-05 14:51:00
10:51 AM,54.0,35.1,49,30.44,10.0,South,5.8,-,N/A,,Overcast,190,2013-11-05 15:51:00
11:51 AM,55.9,37.9,51,30.44,10.0,South,8.1,-,N/A,,Overcast,190,2013-11-05 16:51:00
12:51 PM,59.0,39.0,48,30.40,10.0,SSW,5.8,-,N/A,,Overcast,200,2013-11-05 17:51:00
1:51 PM,60.1,39.9,47,30.38,10.0,South,8.1,-,N/A,,Overcast,190,2013-11-05 18:51:00
2:51 PM,59.0,37.9,46,30.38,10.0,South,10.4,-,N/A,,Mostly Cloudy,190,2013-11-05 19:51:00
3:51 PM,57.9,39.0,49,30.38,10.0,SSW,11.5,-,N/A,,Mostly Cloudy,200,2013-11-05 20:51:00
4:51 PM,55.9,39.0,53,30.35,10.0,South,9.2,-,N/A,,Mostly Cloudy,180,2013-11-05 21:51:00
5:51 PM,55.0,39.0,55,30.36,8.0,SSE,5.8,-,N/A,,Mostly Cloudy,160,2013-11-05 22:51:00
6:51 PM,53.1,39.0,59,30.35,8.0,SSE,5.8,-,N/A,,Mostly Cloudy,160,2013-11-05 23:51:00
7:51 PM,53.1,37.9,57,30.34,8.0,SSE,5.8,-,N/A,,Mostly Cloudy,160,2013-11-06 00:51:00
8:51 PM,51.1,37.9,61,30.34,8.0,SSE,5.8,-,N/A,,Mostly Cloudy,160,2013-11-06 01:51:00
9:51 PM,48.0,37.0,66,30.34,8.0,SSE,5.8,-,N/A,,Mostly Cloudy,160,2013-11-06 02:51:00
9:56 PM,53.6,41.0,62,30.22,10.0,SSE,6.9,-,N/A,,Mostly Cloudy,150,2013-11-06 02:56:00
10:51 PM,50.0,37.0,61,30.31,8.0,South,10.4,-,N/A,,Mostly Cloudy,180,2013-11-06 03:51:00
11:51 PM,49.1,37.0,63,30.30,10.0,South,4.6,-,N/A,,Mostly Cloudy,180,2013-11-06 04:51:00